Starlink 31833

operational
NORAD ID: 59733 Int'l Des: 2024-090 Owner: SPXS Country: US Constellation: starlink
LEOCIRCULAR

Über Starlink 31833

Beschreibung wird geladen...

Live-Position

3D-Globus wird geladen...

Nächste Überflüge

Höhenverlauf

Altitude vs Time

uPlot chart will show altitude changes over time

Zweizeiliger Elementsatz

1 59733U 24090D 25258.81649848 .00000280 00000-0 19685-4 0 9995
2 59733 43.0020 91.2482 0001203 264.9556 95.1159 15.27579193 76694
Epoch: 15. Sept. 2025 • Age: 19 hours

Aktueller Status

Höhe 485.1 km
Geschwindigkeit 7.63 km/s
Subsatellitenpunkt 34.53°N, 0.85°W
Startdatum 13. Mai 2024
Alter 1.3 years
Typ internet

Technische Details

Klassifizierung Payload
Masse 730.00 kg
Trockenmasse 700.00 kg
Gesamtmasse 730.00 kg
Länge 0.30 m
Durchmesser 4.10 m
Spannweite 29.00 m
Form Box + pan
Hersteller SPXS
Bus-Typ Starlink V2M
Phasenstatus In Orbit
Besitzer/Staat SPXS/US

Große Konstellationen

Loading constellations...